STARLINK-34574, 64714

Orbit data source: Space-Track

STARLINK-34574, 64714 is a payload satellite owned by SpaceX/Seattle (US) in LEO that was launched on Sat, 28 Jun 2025 UTC via an FALCON 9 launch vehicle from the Air Force Western Test Range (AFWTR). Payload-class satellites include a variety of spacecraft equipped with specific instruments for various scientific and technological missions. These include communications satellites like Starlink; space stations such as the ISS; scientific satellites like the Hubble; Earth observation satellites from companies like Planet Labs, Umbra, and HawkEye 360; GPS; miniature CubeSats for education and research; and military/defense satellites.

Loading next visibility...
Identifier
64714, 2025-142U
Orbit
LEO
Country
Flag of USUS
Related business
Manufacturer
SpaceX/Seattle
Mission
Operational Commercial Communications
Bus & Motor
STARLINK V2MO, Unknown motor
Mass
575 kg wet, ~530 kg dry
Launch date (UTC)
2025-06-28 (1 year ago)
Launch vehicle
FALCON 9
Launch site
Air Force Western Test Range (AFWTR)
Object type
Payload
Rocket body
Debris
Shape & HBR
Box + 2 Pan, 17.7 m
Radar Cross Section
36.964 m², Large (>1 m²)

Expand to show TLE details & history
Last TLE update: 8 hours ago

TLE from 8 hours ago
0 STARLINK-34574
1 64714U 25142U   26207.57926891  .00003017  00000-0  26052-3 0  9999
2 64714  70.0045 324.3217 0002914 255.7148 104.3687 14.98335775 60298
Epoch: 2026-07-26T13:54Z
TLE epoch observation values (Epoch: 2026-07-26T13:54:08.833Z)
Latitude
-0.0001°
Longitude
171.50969°
Altitude
574.965 km
Speed
7.573 km/s
True Right ascension
21h 37m 17s
True Declination
0° 00' 00"
Sunlit
Object was in full shadow at epoch
Visualization orbit readout
Latitude
Unknown
Longitude
Unknown
Altitude
Unknown
Speed
Unknown
Apparent Right ascension
Unknown
Apparent Declination
Unknown
Sunlit
N/A
Visualization observer readout
Local Sidereal Time
11:05:16
Azimuth
Unknown
Elevation
Unknown
Doppler factor
Unknown
Orbital elements
Apogee altitude
572.01 km
Perigee altitude
567.961 km
Semi-major axis
6,948.123 km
Eccentricity
0.00029
Inclination
70.0045°
RAAN
324.3217°
Arg. of periapsis
255.7148°
True anomaly
104.40104°
Mean anomaly
104.3687°
Eccentric anomaly
104.38487°
Mean motion
3.7475 °/min
Orbital period
96.06 mins
BSTAR
0.00026052
Loading maneuver chart data...
Computing Atmospheric mass density...
Loading historical data...
Loading historical data...
Loading historical data...
Loading historical data...
Loading historical data...
Loading historical data...
Loading historical data...

Documentation

Showing up to 5 results
|